ECMWFFLT1_850_thetae_198.txt.gz
Theta_e
307 307 306 306 305 305 304 304 303 303 303 303 304 305 305 305 305 306 307 307 309 310 312 314 316 318 320 321 321 321 321 322 322 324 326 326 327 327 327 327 328 329 330 331 331 332 333 333 332 330 328 327 327 328 328 329 330 330 331 331 333 334 334
308 308 307 307 306 305 305 304 304 303 303 303 303 305 306 307 306 305 306 306 306 307 308 309 311 313 315 317 318 320 321 322 322 323 324 325 326 328 328 328 327 327 328 328 328 329 330 332 332 330 329 329 329 327 327 327 327 328 329 330 331 332 332
309 308 308 308 307 306 305 304 304 304 303 303 303 304 305 306 306 305 306 307 307 307 307 306 306 307 309 311 313 315 317 320 321 322 323 324 325 326 327 327 327 329 329 328 328 328 329 331 331 329 329 329 330 328 327 328 328 327 327 327 327 328 328
309 309 309 308 307 306 305 304 304 303 303 303 302 302 303 304 305 306 308 310 311 311 309 308 307 306 307 307 307 308 310 312 315 318 320 322 323 324 324 324 325 327 328 328 328 329 329 330 331 331 330 329 330 329 328 328 329 328 327 326 326 326 325
311 310 310 309 308 306 305 304 303 303 303 303 302 302 302 302 303 305 307 309 310 310 309 310 309 308 306 305 305 306 307 308 310 312 315 317 319 320 321 322 323 323 324 325 326 326 326 327 329 330 330 330 331 329 327 327 328 327 327 327 327 327 326
311 311 310 310 309 307 306 305 303 303 302 302 302 302 302 302 302 303 304 305 305 306 307 307 307 306 305 304 305 307 309 310 310 311 311 313 314 315 316 318 319 319 320 321 322 323 323 324 325 326 327 329 330 329 327 328 328 327 327 327 328 328 327
311 311 311 310 309 308 307 306 304 303 302 302 302 303 303 304 305 305 305 305 304 303 303 303 304 305 307 307 308 309 310 311 312 313 313 313 312 313 313 313 314 315 315 316 316 318 319 321 322 323 324 326 327 328 328 328 328 328 327 326 327 327 327
311 311 310 310 309 308 307 306 305 303 302 302 303 303 304 305 306 307 307 306 305 304 304 304 304 305 307 308 309 309 310 311 312 313 313 314 314 314 313 313 313 313 313 314 314 314 315 317 319 321 322 324 327 328 327 327 328 328 327 326 326 326 326
312 311 311 310 309 308 306 305 304 304 303 303 305 306 306 307 307 307 306 305 304 304 305 305 305 305 305 306 306 307 308 309 311 312 313 314 314 314 314 314 313 313 313 314 315 315 315 316 317 319 321 322 325 326 326 327 327 326 326 326 326 325 325
312 311 311 310 309 307 305 304 305 305 305 306 308 309 309 310 310 308 305 303 304 305 306 307 307 306 305 305 305 305 305 306 307 309 311 313 313 314 314 314 314 314 314 314 315 316 316 316 317 318 320 321 322 325 327 327 325 324 324 325 324 325 325
312 311 312 311 310 307 304 304 306 307 307 309 309 309 309 310 310 309 306 306 308 309 309 310 310 308 307 307 307 307 306 306 305 306 308 310 312 313 313 313 314 314 315 315 315 315 315 315 316 317 319 320 320 322 325 326 325 323 323 323 323 324 324
312 312 313 312 312 308 304 305 307 308 309 310 309 308 307 308 308 308 308 310 311 311 311 310 310 309 309 309 309 309 308 307 307 307 308 308 309 310 312 313 313 314 314 315 314 314 314 314 315 317 318 319 319 320 321 323 325 324 323 323 323 322 324
313 313 313 313 312 308 304 305 308 309 310 310 308 308 307 307 307 308 308 310 310 309 309 309 308 308 308 309 309 309 309 308 309 309 309 308 307 307 309 310 312 313 314 314 314 313 313 313 313 315 317 318 319 320 320 321 324 323 322 323 322 322 323
314 314 314 313 311 307 305 307 309 310 310 309 308 308 308 308 308 308 308 308 308 308 308 308 308 308 308 308 308 308 308 308 309 309 309 308 308 307 307 308 309 311 313 313 313 313 312 313 313 314 316 317 318 319 320 320 322 322 321 321 322 322 323
315 314 314 313 310 306 306 308 310 310 310 309 309 309 308 308 308 308 308 308 307 307 307 307 307 308 308 308 308 308 308 308 308 308 308 308 307 307 307 307 307 308 310 312 313 313 312 312 313 314 315 316 317 318 319 320 321 322 322 322 323 324 326
315 314 314 312 309 306 307 309 310 309 309 309 309 308 308 308 308 308 308 308 307 307 307 307 307 307 307 307 307 307 307 307 308 308 308 308 307 307 307 307 306 306 307 308 310 312 312 313 313 313 314 314 315 316 317 319 320 321 322 322 323 325 327
315 314 313 311 308 306 307 309 309 309 309 309 309 308 308 308 307 307 307 307 306 306 306 306 306 307 307 307 307 307 307 307 307 307 307 307 307 307 307 307 307 306 306 307 307 309 311 312 312 313 313 313 314 314 316 317 318 319 319 320 322 324 325
315 314 312 310 307 306 308 309 309 309 309 309 308 308 307 307 307 306 306 305 304 304 304 304 304 305 306 307 307 307 307 307 307 307 307 307 307 307 307 307 307 307 306 306 306 307 308 309 310 311 312 312 313 313 314 315 317 317 318 318 320 321 322
314 314 312 309 307 307 308 309 309 309 309 308 308 307 307 306 306 305 304 304 304 304 304 303 303 303 304 305 306 306 307 307 307 307 307 307 307 306 306 306 306 306 306 306 306 306 306 307 308 309 310 311 312 312 313 314 315 316 316 317 318 319 320
314 313 311 308 307 308 309 309 309 309 308 307 307 306 306 305 305 304 304 304 304 304 303 303 303 303 304 304 304 305 305 305 306 306 306 306 306 306 306 305 305 305 305 305 305 305 305 305 305 306 307 308 310 311 311 312 312 313 314 314 316 317 318
314 312 309 307 308 308 309 309 309 308 307 307 306 306 305 305 305 304 304 304 304 303 302 302 303 304 304 304 304 304 304 304 304 304 304 304 304 304 304 304 303 303 303 303 303 303 303 303 304 304 305 305 306 308 308 309 309 310 311 312 313 315 317
313 311 308 308 308 309 309 309 308 307 307 306 306 306 305 305 304 304 304 303 302 302 303 303 304 304 304 304 304 304 304 304 304 304 304 304 303 303 303 303 303 304 304 303 303 303 303 303 303 303 303 304 304 305 306 306 307 307 308 309 311 313 315
312 309 308 309 309 309 309 308 307 307 306 306 306 305 305 304 304 304 303 302 302 303 303 303 303 304 304 304 304 304 304 304 304 303 303 304 304 304 304 304 304 305 305 304 304 304 304 303 303 302 303 303 304 304 305 305 306 306 307 308 309 311 312
310 309 309 310 309 308 308 307 307 306 306 306 305 305 304 304 303 302 301 302 303 303 302 302 303 303 303 303 303 303 303 303 303 303 303 304 304 305 305 305 305 306 306 305 304 303 302 302 302 302 302 303 303 304 304 305 306 307 307 308 309 310 311
310 309 309 310 309 307 307 307 306 306 306 305 305 304 304 302 301 301 302 303 303 302 302 302 302 302 302 302 302 302 302 302 303 303 303 304 304 305 306 306 306 306 306 305 303 302 301 300 300 300 301 301 301 302 303 304 305 306 307 308 310 310 311
309 309 309 309 308 307 307 306 306 306 305 305 304 303 302 300 301 302 303 303 302 302 301 301 301 301 301 302 302 302 302 302 303 303 303 303 304 305 306 306 306 306 305 305 304 303 302 301 300 299 299 300 300 301 302 303 304 306 307 308 309 310 311
309 309 310 309 308 307 307 306 306 306 305 305 304 301 300 300 302 302 302 302 302 301 300 300 301 301 302 302 302 302 302 302 303 303 303 303 304 305 306 306 306 306 305 304 304 302 301 300 300 300 300 300 300 301 301 302 303 305 307 308 310 311 312
309 309 309 309 308 307 306 306 306 305 305 305 302 299 299 301 301 302 302 302 301 301 300 301 301 302 302 302 303 303 303 303 303 303 303 303 303 304 305 305 305 305 304 304 303 301 300 299 300 300 301 301 301 301 301 302 302 303 305 307 309 310 312
309 309 309 308 307 307 306 306 306 305 305 303 300 297 298 300 301 302 302 301 301 301 301 301 302 302 302 303 303 303 302 302 303 302 303 303 303 303 303 303 303 303 302 301 300 299 299 299 299 300 301 301 301 301 301 301 302 302 304 305 307 309 311
309 309 308 307 307 307 306 306 305 303 302 300 298 296 297 299 302 302 301 301 301 302 302 301 301 302 302 303 303 302 302 302 302 302 302 302 302 302 302 302 301 300 299 299 298 298 298 298 299 300 300 301 301 301 301 301 302 302 303 303 305 307 310
308 308 308 307 307 306 306 305 303 301 300 299 299 297 295 297 301 302 301 301 302 301 301 301 301 302 302 302 302 302 301 301 301 300 301 301 301 301 300 300 299 299 298 298 297 297 297 297 298 299 299 300 301 301 302 302 301 302 302 303 304 306 308
308 308 308 307 307 306 305 304 302 301 300 300 300 299 295 295 300 301 301 302 302 301 301 301 302 302 302 302 303 301 300 300 299 299 300 300 299 299 299 299 298 298 297 297 296 296 296 296 297 298 298 299 300 301 302 302 302 302 302 302 303 305 307
308 308 307 307 306 305 304 304 302 301 301 301 301 300 295 294 298 301 302 302 302 301 301 301 302 302 302 303 302 300 299 299 299 299 299 299 299 299 298 298 297 296 296 295 295 295 295 295 296 297 297 298 299 301 302 302 303 303 303 303 303 304 305
308 308 306 306 305 305 304 303 301 301 301 301 300 298 294 293 297 300 301 302 302 301 301 301 302 302 302 302 301 299 297 298 298 298 299 298 298 298 298 297 297 296 296 295 295 295 295 296 296 297 297 298 298 299 300 301 302 302 302 303 303 303 304
308 307 306 305 305 304 303 302 302 301 301 300 299 296 292 291 295 298 300 301 302 301 301 301 302 302 302 302 301 298 297 297 298 298 298 298 298 298 298 298 297 297 296 296 296 296 296 297 297 297 297 298 298 298 299 299 299 300 301 302 302 303 304
308 306 306 305 304 303 302 302 303 302 301 300 299 295 291 291 293 296 298 300 301 301 300 301 301 301 301 301 300 298 297 297 298 298 298 299 299 299 299 298 298 296 296 296 296 296 296 297 297 297 297 298 298 298 298 298 298 299 300 301 301 303 304
307 306 306 305 303 302 302 303 303 302 301 301 300 296 292 291 292 293 295 297 298 299 299 299 299 300 300 301 300 299 297 297 298 298 298 299 299 299 299 299 297 297 297 297 297 297 297 297 297 297 297 298 298 298 298 299 299 299 300 301 301 302 303

ECMWFFLT1_850_thetae_204.txt.gz
Theta_e
306 306 305 305 305 305 305 305 304 305 305 305 305 306 306 306 307 308 308 308 308 309 310 312 314 316 318 319 320 320 320 320 320 320 321 321 321 321 321 322 323 325 327 327 328 328 328 327 327 326 326 327 326 326 326 326 326 327 327 327 328 327 327
306 306 306 306 306 306 305 305 305 304 305 305 305 306 307 308 309 309 309 309 309 309 309 310 311 313 314 315 316 316 317 317 316 316 317 318 319 319 319 320 321 322 324 326 327 327 326 326 326 326 327 327 327 326 326 327 327 326 326 326 327 327 327
307 307 307 307 307 306 306 305 305 304 304 303 304 305 306 308 309 310 310 311 310 311 311 311 311 312 312 312 312 312 312 312 312 312 312 313 314 315 317 317 318 319 320 322 323 323 323 323 323 324 325 325 325 325 326 326 327 327 327 327 326 326 326
308 308 308 308 308 307 306 306 305 305 304 303 303 303 304 306 308 310 311 312 312 312 313 314 314 314 314 313 312 311 310 309 309 308 309 309 310 311 313 314 315 316 317 317 318 318 318 319 318 319 320 320 320 322 323 323 324 325 326 327 327 326 326
309 309 309 309 308 307 307 306 306 306 305 305 304 303 303 304 307 310 311 312 312 312 312 312 312 312 311 311 310 310 309 308 307 307 308 309 310 310 311 311 312 313 314 315 315 315 315 315 315 315 315 315 315 315 316 317 318 319 321 323 324 325 326
309 309 309 309 309 308 308 308 307 307 306 306 306 305 304 304 305 307 308 309 309 309 308 308 308 308 308 308 308 307 306 306 306 306 307 308 309 310 310 311 311 311 312 313 313 313 313 313 313 314 313 313 313 312 311 311 311 312 313 315 316 318 322
310 310 310 309 309 309 309 309 308 307 307 306 306 306 306 306 306 307 308 308 308 307 306 307 307 308 307 307 307 306 306 305 305 305 305 305 306 307 308 309 310 311 312 312 312 312 312 312 312 313 314 314 313 312 310 309 309 309 309 310 311 312 315
310 310 310 310 310 310 310 310 309 307 307 306 306 306 306 306 307 308 308 308 308 307 307 307 308 308 308 308 308 307 307 307 306 306 305 305 304 304 304 305 307 310 311 312 312 312 313 313 313 314 314 315 314 313 313 311 309 309 309 309 310 310 312
311 311 311 311 311 311 311 311 310 308 307 307 307 307 306 306 306 306 306 306 306 306 307 308 308 309 309 309 309 308 308 307 307 307 307 307 307 306 305 304 305 306 308 310 311 312 312 313 314 315 315 314 314 314 314 313 311 311 311 312 312 311 313
311 311 311 311 311 312 312 312 310 308 307 307 307 307 307 306 306 306 305 306 306 306 306 306 307 307 307 307 307 307 306 307 307 307 308 308 308 307 307 307 306 306 306 306 308 309 311 312 313 313 314 314 314 314 314 313 313 312 312 313 314 315 315
311 312 312 311 312 313 313 313 311 309 308 308 307 307 307 306 306 306 306 306 306 306 306 306 306 306 306 306 306 306 306 306 306 307 307 308 308 307 307 308 308 307 307 306 306 307 308 309 310 311 312 313 313 313 313 313 313 312 311 311 312 313 314
311 312 312 312 312 313 314 313 311 309 308 308 307 307 307 307 307 307 307 307 307 306 306 306 305 305 305 305 305 305 305 305 306 306 307 307 307 307 307 308 308 308 307 307 306 306 306 306 307 308 309 310 311 312 312 312 312 311 310 311 311 310 311
311 312 312 312 313 314 314 313 311 309 309 308 307 307 307 307 307 307 307 307 307 306 306 305 304 303 304 304 304 303 304 304 304 305 306 306 307 307 307 307 307 307 307 307 306 306 306 306 306 306 306 307 308 309 310 311 312 311 310 310 310 309 309
312 313 313 313 314 314 314 313 312 310 308 308 308 308 308 308 308 307 307 307 306 306 305 305 304 303 302 303 302 302 302 302 302 303 303 304 305 306 306 306 306 306 306 306 306 306 306 306 306 306 306 305 305 306 307 308 309 309 309 309 310 309 309
313 313 313 314 314 314 314 314 312 310 308 308 308 308 308 308 308 308 307 307 306 306 305 304 304 303 302 301 301 301 301 301 302 302 302 303 303 304 305 305 306 306 306 306 306 306 306 306 306 306 306 306 306 306 305 306 306 306 306 307 307 307 307
313 314 314 314 314 314 314 314 312 310 308 308 308 308 308 308 308 308 307 306 306 305 305 304 303 302 301 300 300 300 302 303 303 303 303 303 303 303 304 304 304 305 305 305 305 305 305 305 305 305 305 305 305 305 305 305 305 305 305 305 305 305 304
314 314 314 314 315 315 314 314 312 309 308 308 308 308 308 308 308 308 307 306 306 305 304 304 302 301 300 300 302 303 304 304 305 304 304 304 304 304 304 304 304 304 304 304 304 304 304 304 304 304 304 304 304 304 304 304 304 304 305 305 305 305 305
314 314 314 314 315 315 314 314 311 309 308 308 308 308 308 308 308 307 307 306 305 305 304 302 301 300 301 303 304 304 305 305 305 305 304 304 304 304 304 304 304 304 304 304 304 304 304 304 304 304 305 305 305 305 305 305 305 305 305 305 305 306 306
315 315 314 315 315 315 315 314 311 309 308 308 308 308 308 308 308 307 306 305 305 304 303 301 301 302 304 305 305 305 305 305 305 304 304 305 305 304 305 305 305 304 304 305 305 305 305 305 305 305 305 305 304 304 304 304 304 304 304 304 305 305 306
316 315 315 315 315 315 314 313 311 309 308 308 308 308 308 308 307 306 306 305 305 304 301 300 302 304 305 305 305 305 305 304 304 304 304 304 305 305 305 305 305 305 305 305 306 306 306 306 306 306 305 304 304 303 303 302 302 302 303 303 304 304 305
317 317 316 316 315 315 315 313 311 309 308 308 308 308 307 307 306 306 305 305 304 302 300 301 303 305 305 305 305 304 304 304 304 304 304 304 305 305 305 306 306 306 306 306 306 306 306 306 306 305 305 304 303 302 301 301 302 302 302 302 303 303 304
317 318 317 317 315 315 315 312 310 309 309 308 308 308 307 306 306 305 305 304 303 301 301 303 304 305 305 304 304 304 304 304 304 305 305 305 305 305 305 306 306 306 306 306 306 306 306 305 304 303 303 303 302 301 301 301 301 301 301 302 302 302 303
317 318 318 317 316 315 314 311 310 309 309 308 308 307 307 306 306 305 304 302 300 300 302 303 304 304 304 304 304 305 304 304 305 305 306 306 305 306 306 306 306 307 306 306 306 306 306 305 304 303 303 303 302 302 301 301 301 300 300 300 301 301 302
315 318 318 316 315 314 313 310 309 309 308 308 308 307 306 306 305 304 302 300 299 300 301 302 303 304 304 304 304 305 305 305 305 305 306 306 306 306 306 306 306 307 306 306 306 306 305 305 305 304 304 303 303 302 301 300 300 300 300 300 300 300 300
315 317 317 316 314 313 312 309 309 309 308 307 307 306 306 306 304 302 300 298 297 298 300 301 303 304 304 304 304 304 304 305 305 305 305 305 305 305 306 305 305 306 306 305 304 305 304 304 304 303 302 302 302 301 300 300 299 299 299 300 299 299 299
315 317 316 314 313 312 311 309 309 308 308 307 306 306 306 305 303 300 298 296 295 297 299 302 303 304 304 304 304 304 304 304 304 304 304 304 304 304 304 304 304 305 305 304 303 302 301 300 300 300 299 300 300 300 300 300 300 300 299 299 299 300 300
315 317 316 314 313 312 309 309 308 308 307 307 306 306 305 303 301 299 296 294 294 296 299 302 303 303 303 303 303 304 304 304 304 303 302 302 302 302 302 302 303 304 304 303 301 299 298 298 298 298 298 298 298 299 299 299 300 301 300 300 299 300 300
316 317 316 314 312 311 309 308 308 308 307 306 306 305 304 302 301 298 295 293 293 295 298 301 303 303 303 303 303 304 304 304 303 302 301 300 300 300 300 302 302 302 301 300 298 297 298 298 298 297 297 297 298 298 298 299 299 300 300 300 299 299 300
316 317 315 313 312 311 310 308 308 307 307 306 306 305 304 302 300 297 294 293 293 295 297 300 301 302 303 302 303 303 303 303 302 301 299 299 299 299 299 301 301 300 299 298 297 297 298 298 298 298 299 299 299 299 299 299 299 299 299 300 300 300 300
317 315 313 312 312 310 309 308 308 307 307 306 305 304 303 302 299 295 293 292 292 294 296 297 299 301 301 301 302 302 303 302 301 300 299 299 299 299 299 300 300 299 299 298 298 298 299 299 299 300 300 300 300 300 300 300 300 300 300 300 300 300 300
316 314 312 313 312 309 308 308 308 307 307 306 305 304 303 301 297 294 293 292 292 293 294 295 297 299 300 300 301 302 302 301 300 300 299 299 300 300 300 300 299 299 299 298 299 299 300 300 300 300 301 301 301 301 301 300 300 301 301 300 301 300 300
315 314 314 313 311 309 308 308 307 307 306 306 305 304 302 299 295 293 293 292 292 293 294 294 295 297 298 299 300 301 302 301 301 300 300 300 300 300 300 300 299 299 299 299 299 300 300 300 301 301 301 301 301 301 300 300 300 301 301 300 301 301 301
313 313 313 312 310 308 308 308 307 307 306 305 305 304 301 298 294 293 293 292 292 292 293 293 294 295 297 297 298 300 301 301 301 301 301 301 300 300 299 299 299 299 299 300 300 300 300 300 300 300 300 300 300 301 300 300 300 300 300 301 301 301 301
313 312 312 311 309 308 308 308 307 307 306 305 304 303 300 296 293 293 293 292 292 292 292 292 293 294 295 296 296 297 298 300 300 300 300 299 299 298 298 298 298 298 298 299 299 299 299 299 299 298 297 297 298 299 300 300 300 300 301 301 301 301 301
312 312 312 310 309 308 308 308 307 307 306 305 304 302 299 296 293 293 293 292 292 292 292 292 292 293 294 294 294 294 294 296 297 297 297 297 297 296 296 295 295 295 296 296 297 297 298 298 297 296 295 295 295 297 299 301 301 301 301 301 301 301 301
313 312 312 310 309 308 308 307 307 306 305 305 303 301 298 295 294 293 293 293 292 292 292 292 292 292 292 292 293 292 292 292 293 293 294 294 294 293 293 293 292 292 292 292 293 294 295 296 296 296 295 294 293 293 296 299 301 301 301 301 301 301 301
314 313 312 310 308 308 308 307 307 306 305 304 303 300 298 295 294 294 294 293 292 292 292 292 292 292 292 291 291 291 291 291 291 291 291 291 291 291 291 291 291 290 290 290 290 291 292 293 293 294 294 293 293 292 293 295 299 301 301 300 300 300 300

ECMWFFLT1_850_thetae_210.txt.gz
Theta_e
310 307 307 308 308 308 308 308 307 307 308 307 306 306 307 307 308 309 308 309 310 309 310 311 310 312 312 311 311 312 311 311 313 314 317 321 321 322 324 323 323 324 324 325 326 328 329 329 328 328 329 328 329 330 328 326 327 328 329 327 327 329 330
308 308 309 309 309 309 309 309 308 308 308 308 307 306 307 308 308 309 310 310 310 310 314 315 313 312 312 312 312 311 310 310 310 309 310 314 315 317 320 320 321 323 323 323 324 325 325 325 325 325 326 327 328 327 326 325 323 324 326 326 325 327 327
309 309 310 310 310 309 309 309 309 309 309 309 308 307 307 307 306 309 310 311 309 309 312 313 312 313 314 314 313 311 310 311 313 313 311 311 311 313 315 316 319 321 321 322 322 322 323 323 323 323 323 325 326 326 326 324 322 323 325 324 322 324 325
310 310 310 311 310 309 309 310 310 310 310 309 309 308 308 307 307 307 308 310 310 310 312 312 312 314 314 313 313 313 313 312 311 312 311 312 313 315 316 317 318 320 320 320 320 321 322 322 322 322 321 322 322 323 322 322 322 320 318 317 317 320 322
310 310 310 311 310 310 310 310 311 311 311 310 309 309 308 308 308 308 309 311 312 311 313 314 314 314 313 312 313 313 314 313 311 310 309 310 311 312 316 317 317 318 318 318 319 320 320 320 320 320 320 319 319 319 319 321 320 316 314 313 313 314 316
310 310 311 310 310 310 310 311 311 311 311 310 309 309 308 308 308 307 308 310 311 311 311 313 314 314 313 313 314 313 313 313 313 312 310 310 308 307 310 312 313 316 317 318 318 318 319 318 319 319 319 319 319 319 319 319 319 318 318 316 313 311 314
309 310 310 310 310 311 311 311 311 311 311 310 309 309 308 308 307 307 306 306 308 309 310 310 311 312 311 311 313 313 312 312 312 312 312 312 311 310 310 310 312 314 315 316 317 317 317 318 318 318 318 318 318 319 319 318 318 319 320 319 316 314 314
309 310 310 310 310 311 311 312 312 312 312 310 310 309 308 308 307 307 307 306 307 308 309 309 309 311 309 307 311 312 311 312 311 310 311 313 313 312 313 313 313 313 314 315 315 315 316 316 317 317 317 317 317 318 318 318 318 318 319 318 318 317 318
309 309 310 310 311 311 312 312 312 312 312 311 310 309 308 308 307 308 308 307 306 307 308 307 308 309 306 306 309 309 309 311 310 309 310 312 312 312 313 313 313 313 314 314 313 314 314 314 315 315 315 315 316 316 316 316 317 317 317 317 317 318 318
309 309 310 310 311 311 312 312 313 313 313 312 311 309 308 307 307 308 308 307 306 306 307 307 308 308 306 307 308 307 308 308 307 309 311 311 312 312 312 312 312 312 312 312 312 312 312 313 313 313 313 314 314 314 315 315 315 316 316 316 317 317 316
309 309 310 310 311 312 312 313 313 313 313 312 311 310 309 308 307 307 307 307 307 306 307 307 307 307 306 308 307 307 308 306 304 308 311 310 310 310 311 311 311 311 311 311 312 311 311 311 311 311 311 312 312 312 313 313 313 314 313 314 314 314 314
309 310 310 311 311 312 312 313 313 313 313 313 312 310 309 308 308 307 308 309 308 308 308 307 307 307 306 306 305 306 307 303 301 306 309 308 308 308 309 310 310 310 310 310 310 310 310 310 310 310 310 310 310 311 311 311 312 312 312 312 312 312 312
312 312 311 311 312 312 313 313 314 314 314 313 312 311 310 309 309 309 309 310 309 309 308 307 307 306 306 305 302 302 303 301 302 305 307 307 306 305 307 308 308 309 309 309 309 309 309 309 309 309 309 309 309 309 309 310 311 311 311 311 311 311 310
315 315 313 312 312 312 313 313 314 314 314 313 312 311 310 310 310 310 310 310 310 309 308 308 307 306 305 303 300 299 301 302 304 306 306 305 305 306 306 307 307 307 307 307 308 308 308 308 308 308 308 308 308 309 309 309 309 310 310 310 310 310 310
315 316 313 312 312 313 313 313 314 314 314 314 313 311 310 309 309 310 310 310 309 309 308 307 306 305 304 301 300 301 303 304 306 306 306 306 307 307 306 306 307 307 307 307 307 307 307 307 307 307 307 308 308 308 308 308 309 309 309 309 309 309 309
312 314 314 313 313 314 314 313 314 314 314 314 313 312 310 309 308 309 309 309 309 308 307 307 306 305 302 300 301 304 305 305 306 306 306 306 306 306 306 306 306 306 306 306 306 307 307 307 307 307 307 307 308 308 308 308 308 308 308 309 308 308 309
312 314 314 313 313 314 314 314 314 314 315 315 313 311 310 309 308 308 308 309 309 308 307 306 306 303 300 299 302 305 306 306 306 306 306 306 305 305 305 306 306 306 306 306 306 306 307 307 307 307 307 307 307 308 308 307 307 308 308 307 307 307 307
313 314 313 312 313 314 314 314 314 315 315 315 314 312 310 309 309 308 308 308 308 307 306 306 304 302 300 301 304 306 306 306 306 305 305 305 305 305 305 305 305 305 305 306 306 306 306 306 306 306 306 306 307 307 307 307 307 307 307 306 306 306 306
310 312 312 311 313 314 314 314 315 315 315 315 314 312 310 309 309 309 308 308 308 307 306 305 302 299 300 303 305 306 305 305 305 305 305 305 304 304 304 305 305 305 305 305 305 305 306 305 305 305 305 305 306 306 306 306 306 306 306 306 306 306 306
308 310 312 312 313 315 315 314 315 315 315 315 315 312 310 309 309 309 308 308 307 306 306 304 300 298 300 302 304 305 305 305 304 304 304 304 304 304 304 304 304 304 304 304 304 305 305 304 304 304 305 305 305 305 305 305 305 305 306 306 306 306 306
311 309 312 314 315 315 315 315 315 315 315 315 315 313 311 309 309 308 308 307 307 307 305 302 298 297 298 300 303 304 304 304 304 304 304 304 304 304 304 304 304 304 304 304 305 305 305 305 304 304 304 304 304 304 304 304 305 305 306 306 306 306 306
315 313 312 314 315 316 316 315 315 315 315 315 315 314 311 309 309 308 308 307 307 306 304 300 297 296 297 299 302 304 304 304 304 303 303 303 303 303 304 304 303 303 305 306 307 307 306 306 306 305 304 303 303 303 303 303 304 304 304 305 305 305 305
319 317 314 312 315 316 316 315 315 315 316 316 315 315 312 309 309 308 308 307 307 306 303 299 296 295 295 298 302 303 304 303 303 303 303 303 303 303 304 304 303 304 306 307 307 307 306 306 306 305 305 304 303 302 302 301 302 302 303 303 303 304 304
320 319 315 311 314 316 316 315 316 315 316 316 315 315 313 310 309 308 308 307 306 305 302 298 295 294 295 298 301 303 304 303 303 303 303 302 302 302 303 303 303 305 306 305 305 305 305 305 304 304 304 303 303 302 301 300 300 301 301 302 302 303 303
320 320 317 313 314 316 316 315 316 315 315 315 315 315 313 309 308 308 307 307 306 304 301 297 294 294 294 297 301 303 303 303 303 303 302 302 302 302 302 302 303 304 305 305 305 303 302 302 302 302 302 302 301 301 301 301 301 300 300 301 301 302 302
320 319 318 316 315 316 316 315 314 314 314 314 314 315 312 309 308 308 307 307 306 303 300 296 294 294 294 296 299 302 303 303 302 302 302 301 301 301 302 302 302 302 302 303 303 301 300 300 300 300 301 301 301 301 301 301 301 301 300 300 300 301 301
320 319 319 318 315 314 315 315 314 314 314 314 315 314 311 308 308 308 307 306 305 302 298 295 294 294 294 295 299 301 302 302 302 302 301 301 301 301 301 301 301 301 301 301 300 301 301 301 301 301 301 301 301 301 300 301 301 301 300 300 300 301 301
320 319 318 318 316 313 313 314 315 315 315 315 314 312 309 308 308 307 307 306 304 301 297 294 294 294 294 296 299 300 302 302 302 301 301 301 301 301 301 301 301 301 300 300 300 301 302 302 302 301 300 300 301 301 300 300 301 301 300 300 301 302 302
319 318 318 318 316 313 312 312 314 315 315 315 313 310 308 308 308 307 307 306 304 300 296 294 294 293 294 297 299 300 302 302 302 301 301 301 301 301 301 301 300 300 300 300 301 301 302 301 300 299 298 298 299 300 301 301 301 301 301 301 302 302 302
318 318 318 317 316 315 314 313 315 316 316 315 312 309 308 308 308 307 306 306 304 300 295 294 294 293 294 297 298 300 301 302 302 302 302 301 301 301 301 300 300 300 300 300 301 301 300 299 298 296 296 297 297 299 301 300 299 300 302 302 302 303 303
317 318 318 317 317 316 315 315 315 315 315 314 311 309 308 308 307 307 306 305 303 299 294 293 294 293 294 296 298 300 301 302 302 302 302 302 301 301 300 300 300 300 300 300 300 300 299 298 297 296 296 296 296 298 299 297 295 297 300 301 302 302 302
316 317 317 317 317 316 316 315 315 315 314 312 310 309 308 307 307 307 306 306 303 298 294 293 293 293 294 296 297 298 301 302 302 302 303 302 302 301 300 298 298 298 298 297 297 297 297 296 296 295 295 294 295 296 296 294 293 295 299 300 301 301 301
315 316 316 316 316 315 315 314 314 314 313 311 309 309 308 307 307 307 306 305 303 298 294 293 293 293 293 295 296 296 298 301 302 302 302 302 301 301 299 297 295 294 294 293 293 293 293 293 293 293 292 292 292 293 292 292 293 294 298 300 301 302 302
314 315 315 316 315 315 314 313 313 313 312 311 309 308 307 307 307 306 306 305 302 298 294 292 293 293 292 294 295 294 294 297 300 301 301 301 301 301 300 299 296 292 291 292 291 291 291 291 291 291 291 291 291 291 291 292 293 293 297 300 301 302 303
314 314 314 315 315 315 315 314 314 313 312 311 309 308 307 307 307 306 306 305 302 298 294 293 293 293 293 293 293 293 292 293 294 295 297 299 300 301 300 297 294 292 291 291 291 291 291 291 291 292 291 291 291 291 291 292 292 293 296 299 301 301 302
313 314 314 314 314 315 315 314 314 313 312 311 309 308 307 306 306 306 305 305 302 298 295 293 293 293 293 292 292 292 292 292 292 291 292 295 298 299 297 294 292 291 291 291 291 291 291 292 292 292 292 291 291 292 291 291 292 293 294 298 300 301 301
312 312 313 313 314 314 314 314 313 312 312 311 310 308 307 306 306 306 305 305 303 299 296 294 293 293 293 293 292 292 292 292 292 291 291 292 294 295 294 292 291 292 291 291 291 291 291 292 292 292 292 292 292 292 291 291 292 292 294 297 299 300 300

ECMWFFLT1_850_thetae_216.txt.gz
Theta_e
325 327 322 318 317 314 312 313 313 313 313 313 313 313 313 313 312 312 312 311 310 311 316 322 320 316 316 316 315 316 316 311 307 307 307 310 317 320 321 323 323 324 323 323 323 323 323 324 321 320 320 321 322 324 325 325 326 327 329 329 329 329 329
330 327 318 314 313 312 313 313 313 314 314 314 314 314 314 314 313 313 314 312 310 310 315 320 319 316 317 316 317 315 314 314 312 310 307 307 311 314 316 317 318 319 320 321 321 322 323 324 323 322 321 321 321 323 324 324 325 326 328 329 328 326 326
329 325 314 311 313 313 313 313 314 314 314 314 314 314 314 314 312 313 314 312 310 309 311 314 314 316 319 318 317 313 313 317 316 313 312 308 308 309 311 316 317 316 318 320 321 323 322 322 323 323 323 323 322 322 323 324 324 325 325 326 325 325 325
327 321 313 311 313 313 313 313 313 313 314 314 314 314 314 314 313 312 312 310 311 310 312 317 316 318 318 315 315 315 316 318 316 316 317 315 313 311 310 315 318 319 321 321 321 321 321 320 321 322 323 323 321 320 321 321 320 321 322 323 323 323 323
326 317 312 313 313 313 313 313 313 313 314 314 314 314 314 314 313 312 311 311 311 310 311 316 317 317 315 311 315 318 317 317 316 317 319 317 316 315 313 313 314 316 319 319 318 319 320 321 321 320 320 319 318 317 318 319 319 319 319 319 319 319 320
325 317 314 313 312 313 313 313 313 313 314 314 314 314 314 314 314 313 312 311 310 309 308 310 311 312 310 308 311 315 317 317 316 315 316 315 315 316 316 315 313 315 317 317 318 319 320 320 320 319 319 318 319 319 319 319 318 317 317 317 317 317 319
325 320 319 317 313 314 313 313 313 313 313 314 313 314 314 314 313 313 312 310 310 309 308 307 307 309 309 306 305 310 315 315 312 313 314 313 312 313 315 316 316 317 317 316 316 317 318 318 318 318 319 319 319 319 319 318 317 317 317 317 317 318 319
326 322 323 323 319 316 314 312 313 313 314 313 313 314 313 313 313 312 312 311 310 309 308 306 307 310 310 305 304 308 311 310 310 314 314 313 313 314 314 315 315 315 315 315 315 316 317 317 317 317 317 317 317 316 317 317 317 317 317 317 317 317 318
326 323 324 325 323 320 316 313 314 315 314 314 313 313 313 312 312 311 312 311 310 309 308 306 307 310 308 303 304 306 308 310 313 314 312 310 312 314 314 314 313 313 314 315 315 315 315 315 316 316 315 316 316 316 316 316 316 316 316 317 316 316 316
326 323 323 325 324 322 318 316 317 318 315 314 313 313 313 312 311 312 312 311 309 309 309 307 306 308 306 302 304 305 305 309 312 311 308 309 312 314 313 313 314 314 314 314 314 314 314 314 315 315 315 315 314 315 315 315 315 316 316 316 316 316 316
325 323 323 324 323 322 320 319 320 319 315 313 313 313 312 312 311 311 311 310 310 309 309 307 306 306 305 302 303 303 304 307 308 305 304 308 312 313 312 312 312 312 313 313 313 313 313 313 313 313 313 313 313 313 313 314 314 314 314 315 315 315 315
324 323 323 324 323 322 321 321 321 319 316 313 313 313 312 311 311 310 310 310 310 310 310 309 308 307 304 302 303 304 304 305 303 302 306 310 312 312 312 311 311 310 311 311 311 312 312 312 312 311 312 312 312 312 312 312 313 312 312 312 312 313 313
322 321 323 323 323 322 321 321 321 318 316 313 313 313 313 312 311 310 311 312 312 311 311 310 309 308 305 303 303 303 302 301 303 307 311 312 311 311 311 311 310 310 310 311 311 311 311 310 310 310 311 311 311 311 311 312 312 311 311 311 311 311 312
321 321 322 323 323 322 322 322 322 318 315 314 313 313 313 313 312 312 313 313 314 314 313 311 310 308 305 303 302 301 302 304 306 309 309 308 309 310 310 311 310 310 310 310 310 310 310 310 309 310 310 310 310 310 310 311 311 311 311 311 311 311 311
322 322 322 322 322 322 322 322 322 319 316 315 314 313 314 315 314 314 315 316 315 315 313 312 311 309 305 303 303 301 303 307 306 306 307 308 309 310 310 310 310 310 309 309 309 309 309 309 309 309 309 309 310 310 310 310 310 310 311 310 311 311 311
322 321 320 321 322 321 322 322 322 321 318 316 315 314 316 318 316 315 316 316 316 315 314 312 311 309 306 305 303 301 303 307 308 308 310 310 309 309 309 309 309 309 308 308 309 309 308 309 309 309 309 309 309 310 310 310 310 310 310 310 310 310 310
320 319 318 320 321 319 320 321 321 321 320 318 318 316 317 318 317 316 316 316 316 315 313 312 311 310 308 305 303 301 302 306 308 308 309 309 309 309 309 308 308 308 307 308 308 308 308 308 308 309 309 309 309 309 309 310 310 310 310 309 310 309 309
320 318 317 319 320 319 319 320 320 321 320 320 320 319 318 318 317 317 317 316 315 315 314 312 312 310 308 305 303 302 302 304 305 304 304 306 308 308 308 308 308 308 308 307 307 308 308 308 308 308 308 309 308 308 308 308 308 308 308 308 308 308 308
320 319 316 317 319 320 319 319 320 320 320 320 320 319 318 318 318 317 316 316 315 315 314 313 312 310 307 305 303 304 304 304 303 302 303 305 307 308 308 308 308 308 308 307 307 308 308 308 308 308 308 308 307 307 307 307 307 307 307 307 307 307 307
319 318 317 317 318 319 319 320 319 319 319 319 319 319 318 318 317 317 316 316 315 314 313 312 311 309 307 304 304 304 304 302 301 302 304 306 307 307 307 307 307 307 307 307 307 307 307 307 307 307 307 306 306 306 306 306 306 306 306 307 307 307 307
318 317 317 316 315 316 318 319 319 319 319 319 319 319 318 317 317 316 316 315 315 314 313 311 310 309 307 305 304 302 300 300 301 302 303 304 305 307 307 307 307 307 307 307 307 307 307 307 307 307 307 306 305 305 305 305 305 305 306 306 306 306 306
319 317 317 316 317 316 316 316 318 319 319 318 318 318 317 317 317 316 316 315 314 314 312 311 310 309 306 304 301 299 299 300 300 301 302 303 305 306 307 307 307 307 307 306 306 307 306 306 306 306 306 306 305 305 304 304 304 304 304 304 304 304 305
320 319 318 318 318 319 317 315 317 318 317 315 317 317 317 317 317 317 316 315 314 313 312 311 311 309 307 303 300 298 297 297 297 299 303 306 306 305 306 306 306 306 306 305 306 306 306 306 306 306 305 305 304 303 303 302 302 302 302 303 303 303 304
320 320 320 319 319 318 317 315 315 315 313 311 314 317 318 317 317 316 316 315 313 312 312 312 311 310 307 305 301 298 296 296 295 297 302 306 306 305 306 306 305 305 305 304 304 305 305 305 305 305 304 303 302 302 302 301 301 301 301 302 302 302 303
320 320 321 321 320 319 318 315 313 313 311 311 314 317 317 318 317 316 315 314 313 312 312 312 312 310 308 305 302 298 296 296 294 296 303 306 306 305 306 305 304 304 304 304 304 304 305 304 304 304 303 302 303 303 303 302 302 301 301 301 301 301 302
320 320 321 320 320 320 319 318 315 313 312 313 316 317 318 317 316 316 315 314 313 313 313 312 312 310 308 306 303 298 296 296 294 297 304 307 306 305 305 304 304 303 303 304 304 303 303 303 303 303 303 303 303 303 303 303 302 302 302 301 301 301 302
320 320 320 320 319 319 319 318 317 316 315 314 315 317 318 317 315 315 316 314 313 313 313 312 311 310 308 306 303 298 296 295 294 296 302 304 304 305 304 303 304 303 303 303 303 303 303 303 303 302 302 303 304 303 303 303 302 302 302 301 300 299 299
318 319 320 319 319 319 317 316 317 319 319 317 316 316 317 317 316 315 315 315 313 313 312 311 311 310 309 307 303 298 296 295 294 297 301 303 303 304 303 303 303 303 303 303 303 303 302 302 302 300 299 302 304 304 304 303 303 303 302 301 299 297 297
316 317 318 318 317 318 318 318 319 320 320 319 317 316 316 316 316 316 316 315 313 313 312 311 311 311 309 307 304 299 296 295 295 300 303 304 304 304 303 303 303 303 303 303 303 303 302 302 301 298 297 301 303 303 303 303 303 303 302 300 297 295 298
316 317 318 318 317 318 318 319 319 319 318 318 318 317 316 316 315 315 315 315 313 313 312 312 311 310 309 307 304 300 296 294 297 303 305 305 304 304 303 304 303 303 303 303 303 303 302 301 300 298 297 299 299 299 302 304 304 303 301 297 295 295 300
316 317 318 318 317 317 317 317 317 317 317 317 317 317 317 316 315 315 315 314 313 313 312 312 312 310 308 307 304 299 295 294 298 304 306 305 305 304 304 304 304 302 301 301 300 300 299 299 298 297 297 296 295 297 302 304 302 300 296 294 294 298 302
315 315 316 317 317 317 316 317 317 317 317 317 317 317 316 316 316 315 315 314 313 313 313 312 312 310 309 307 304 300 295 294 299 306 307 305 305 305 304 305 304 302 300 298 296 295 295 295 294 294 294 294 293 295 298 298 296 295 293 293 296 301 303
314 314 314 316 317 317 316 316 316 317 317 317 316 316 315 315 314 314 314 314 313 313 313 312 312 310 309 308 306 301 296 293 298 305 307 306 306 306 306 305 304 303 300 298 296 294 293 293 293 292 292 293 292 293 293 293 293 293 292 293 297 301 303
314 315 315 315 315 316 316 316 315 316 317 316 316 316 316 314 313 313 313 313 313 313 312 312 312 311 309 308 307 303 297 293 296 302 306 307 306 306 306 305 305 304 303 301 300 297 293 292 292 292 292 293 293 293 293 293 293 292 293 295 298 301 303
313 314 314 315 316 315 315 316 316 316 316 317 316 316 316 315 314 313 313 313 313 312 312 312 312 310 309 308 308 305 299 294 294 298 303 306 307 306 305 305 305 305 304 304 303 299 294 293 293 293 292 293 293 293 293 293 293 293 294 296 298 300 302
312 312 313 314 315 315 315 315 315 315 315 315 316 316 315 315 314 314 313 313 312 312 311 311 311 310 309 309 309 306 300 295 293 294 298 303 306 306 306 305 305 305 305 304 302 298 293 293 293 293 293 293 293 293 293 292 293 294 295 296 299 301 302
311 311 312 312 313 315 315 315 315 315 314 314 314 315 315 314 314 313 313 313 312 312 311 311 311 310 310 310 310 307 301 296 294 293 295 298 302 303 303 304 304 304 304 302 299 295 292 292 293 293 293 293 293 293 293 292 294 295 296 297 300 301 301

ECMWFFLT1_850_thetae_222.txt.gz
Theta_e
324 322 318 314 313 312 311 311 311 312 313 313 312 312 312 312 313 312 311 311 311 310 311 312 311 312 312 311 310 310 308 308 307 306 307 309 312 317 319 322 324 324 324 323 320 319 318 318 318 318 320 321 321 322 323 323 324 325 326 326 327 328 328
320 319 316 314 315 314 313 312 312 312 313 313 313 313 313 313 313 313 312 311 311 311 311 311 311 311 311 310 310 309 308 308 307 306 305 305 309 313 316 320 322 323 323 322 321 321 320 319 318 318 319 321 322 321 322 323 324 325 326 327 327 326 325
316 314 313 314 316 316 315 313 312 312 312 313 313 314 314 314 314 313 313 311 311 311 311 310 310 310 310 309 309 308 308 308 308 307 306 305 305 308 312 314 316 317 319 320 321 321 321 320 319 318 318 320 322 321 321 322 323 322 322 323 324 322 320
314 314 314 317 319 320 318 314 312 312 312 313 313 314 314 314 314 313 313 312 311 311 311 310 311 310 309 309 308 308 308 308 308 307 307 307 306 306 307 308 311 313 314 317 319 320 320 320 320 320 319 319 321 322 321 320 320 320 320 320 320 320 319
317 318 320 322 324 324 322 319 315 312 312 313 313 314 314 313 313 313 312 312 311 310 310 311 311 311 309 308 308 308 308 307 308 307 306 307 306 306 306 306 308 312 315 316 318 318 318 319 319 320 320 320 320 321 321 320 318 318 319 318 318 318 319
325 326 327 328 327 326 327 326 320 313 311 313 313 313 314 313 313 313 313 312 311 310 310 310 311 310 309 307 307 307 307 307 307 306 305 305 305 305 306 307 308 311 316 317 317 318 317 318 319 319 319 319 319 319 319 319 317 316 316 317 316 317 318
329 328 329 329 329 328 328 328 325 317 312 312 313 313 314 313 313 313 313 312 311 310 310 310 310 309 308 307 306 306 307 306 306 305 304 304 304 304 305 307 308 310 313 315 316 317 317 317 317 318 318 318 317 317 316 316 316 316 316 316 316 316 317
328 328 328 329 330 330 329 328 327 320 313 312 313 313 313 313 313 313 312 312 311 310 309 309 309 308 308 307 305 305 306 305 305 304 304 304 303 304 305 307 309 310 311 313 314 314 315 315 316 316 316 316 315 315 313 313 313 314 315 315 316 316 316
327 328 329 329 328 328 328 327 327 322 315 313 312 312 313 312 313 313 312 312 310 309 309 309 308 308 308 306 304 304 305 304 304 304 305 304 302 302 304 307 311 312 312 312 313 313 313 314 314 314 314 314 314 314 313 312 311 312 313 314 314 315 315
327 327 328 327 326 325 325 326 326 324 321 317 313 312 313 313 312 313 313 311 310 309 309 309 309 308 307 305 304 304 303 303 303 303 303 303 302 302 303 306 310 312 313 313 313 314 314 314 314 314 314 314 314 314 313 313 312 311 311 312 313 313 313
327 326 325 326 326 325 324 325 326 326 324 322 317 314 315 314 313 313 313 311 310 309 309 310 309 308 307 305 304 304 303 302 301 301 301 301 302 304 305 306 308 310 311 312 312 313 313 313 313 313 313 313 313 313 313 312 312 312 311 311 311 311 312
326 325 324 325 325 325 325 325 326 326 325 325 323 320 317 315 314 314 313 311 311 310 309 309 309 309 308 306 304 304 302 301 301 300 301 302 304 305 306 306 306 308 309 310 311 312 313 313 312 313 312 312 312 312 312 311 311 311 311 310 310 310 310
325 325 325 324 324 325 326 325 325 325 325 325 325 323 320 317 315 314 313 311 311 311 309 309 310 309 308 307 305 303 302 301 301 301 301 302 303 305 307 308 307 305 306 307 308 310 312 312 311 311 310 311 311 310 311 311 310 310 310 310 310 309 309
323 324 325 325 325 325 325 325 324 324 324 324 324 323 321 320 318 316 314 312 311 311 310 310 310 310 310 308 306 304 303 302 301 301 301 301 302 304 305 307 308 307 307 306 306 307 308 309 309 309 309 308 309 309 309 310 310 310 310 310 309 309 309
321 322 323 324 325 325 324 324 323 323 323 323 322 322 322 322 321 320 316 312 312 312 311 311 312 311 310 309 308 306 304 302 302 301 301 301 301 303 304 306 308 309 309 308 308 307 307 307 308 309 309 308 308 308 308 308 309 309 309 309 309 309 308
320 320 321 322 323 323 324 324 323 322 323 323 322 322 322 322 321 321 318 314 312 313 312 312 313 312 311 310 309 307 305 304 303 301 300 300 300 301 302 304 306 307 308 308 308 308 307 307 307 308 308 309 308 308 308 308 308 308 308 308 308 308 308
319 320 320 320 321 322 322 323 323 322 323 323 323 322 322 321 320 320 319 314 312 312 313 313 314 313 312 311 310 309 306 304 303 301 300 299 298 299 300 302 304 306 306 307 307 307 307 307 307 307 307 308 308 308 308 308 308 308 308 308 308 307 307
318 319 319 319 320 320 321 321 321 322 322 322 322 321 321 320 319 318 317 314 312 313 314 314 315 314 313 313 312 310 307 305 304 302 301 299 298 298 298 300 303 304 306 306 307 307 307 307 307 306 306 306 307 307 307 308 308 308 307 307 307 306 306
316 318 319 319 319 319 320 320 320 321 321 321 321 320 319 319 318 318 316 315 315 315 315 314 315 315 315 314 313 311 308 306 304 302 301 299 298 298 298 299 300 302 304 305 306 307 307 307 307 307 306 306 306 306 307 307 307 307 307 306 306 306 306
315 316 317 318 319 319 319 320 320 319 320 320 320 320 319 319 319 317 316 316 317 316 316 316 316 316 315 315 314 312 310 307 304 302 301 299 298 297 297 297 299 300 302 303 305 306 307 307 307 307 307 307 306 307 307 307 307 307 307 306 306 306 305
315 315 315 316 317 318 319 319 320 319 319 319 319 319 319 319 319 318 317 317 317 317 316 316 316 316 315 315 314 313 311 308 305 302 300 299 298 297 297 297 298 300 302 303 303 304 305 306 306 306 306 307 307 307 307 307 307 307 307 306 306 305 305
315 315 315 315 316 317 318 319 319 319 319 319 319 319 319 319 319 319 318 318 317 317 317 316 316 316 315 314 314 313 312 310 306 303 300 298 297 296 296 296 298 301 302 303 303 303 304 305 305 306 307 307 307 307 307 307 307 307 306 305 305 304 303
315 315 315 315 314 315 317 318 319 319 319 319 319 319 319 319 319 319 318 318 317 317 317 316 316 316 315 315 314 313 313 311 308 304 300 297 296 296 296 296 298 301 302 302 303 303 304 305 306 307 307 307 307 307 307 307 306 306 305 303 302 301 301
315 315 315 315 314 315 316 317 318 318 318 318 318 318 319 319 319 319 318 318 317 317 317 316 316 316 316 315 314 314 314 312 310 306 301 297 296 295 296 296 298 301 302 302 303 303 304 305 306 307 308 308 307 307 306 305 305 303 302 300 298 297 299
314 314 314 315 315 315 316 316 317 317 317 317 317 317 317 317 318 318 319 319 318 317 316 316 316 316 316 314 314 315 314 312 310 307 302 297 295 295 296 297 299 302 303 303 303 303 304 305 306 307 307 306 306 305 305 304 303 301 300 299 297 295 299
313 312 313 314 314 315 315 315 316 316 317 317 317 317 316 316 316 317 317 318 318 317 317 316 316 316 315 314 314 315 314 312 311 308 303 298 296 296 296 297 300 302 303 304 303 303 304 306 306 305 305 305 304 304 303 303 302 301 300 299 297 295 298
312 311 312 313 313 314 314 314 315 315 316 317 317 317 317 317 317 317 316 316 317 317 317 317 317 317 316 315 315 314 313 312 312 309 305 301 298 296 295 297 300 302 303 304 303 303 304 305 304 303 303 304 304 303 302 302 302 302 301 299 297 294 296
312 311 311 311 311 312 313 314 315 315 315 316 317 317 317 317 317 316 315 315 315 316 316 316 316 316 316 315 315 314 313 312 312 310 307 303 299 296 296 300 302 303 303 303 303 303 305 305 304 302 301 302 303 302 301 301 301 301 301 299 296 294 296
310 310 311 311 311 311 312 313 314 315 315 316 317 316 316 317 317 316 315 315 315 314 314 315 315 314 314 314 314 313 313 312 312 310 307 304 299 296 298 302 304 304 303 303 303 304 304 304 303 300 298 300 301 301 299 298 299 300 300 298 296 295 297
310 309 310 311 311 311 311 311 312 313 314 315 316 316 316 316 317 317 317 316 315 314 313 313 314 315 314 314 313 314 313 312 312 310 307 303 299 297 299 303 305 304 303 303 304 304 304 304 302 299 298 298 299 298 296 296 297 298 298 296 296 297 300
309 309 309 310 311 311 312 311 310 311 312 313 314 314 315 316 316 316 317 317 317 316 314 313 313 315 315 314 314 313 313 312 312 311 307 302 298 297 299 303 305 303 301 301 302 302 300 299 298 297 296 296 296 295 294 294 294 295 296 294 295 299 302
309 308 307 308 310 311 312 312 310 310 310 311 313 313 313 314 315 316 316 316 317 317 316 314 314 315 315 315 314 313 313 312 312 312 308 302 298 298 299 302 305 303 301 300 298 296 296 297 296 295 294 293 293 293 293 293 293 293 293 292 294 298 302
308 307 306 308 309 311 312 312 311 310 310 311 312 313 313 313 314 315 316 316 315 316 316 316 315 315 315 315 314 313 313 312 312 312 308 302 299 298 299 302 304 304 304 303 299 297 299 301 301 300 297 294 293 293 293 293 293 293 293 292 293 297 301
307 306 307 308 309 310 311 311 311 310 311 311 312 312 313 313 313 315 315 316 315 315 315 315 315 315 315 315 314 313 313 313 312 311 308 304 301 298 299 301 303 304 305 305 303 302 304 304 303 303 301 296 293 293 293 293 293 293 293 293 292 295 300
306 306 307 308 309 309 310 311 312 311 310 311 311 312 312 313 313 313 314 315 315 315 315 314 314 314 314 314 313 313 313 313 312 311 309 306 303 299 298 299 302 304 305 305 304 304 304 304 304 303 301 297 293 293 293 293 293 293 293 293 292 295 299
306 307 307 308 309 309 309 310 311 311 311 310 311 311 312 313 313 313 313 314 314 314 314 314 313 313 313 313 313 313 313 313 313 312 310 308 305 300 298 298 300 303 305 305 304 304 304 304 304 303 300 296 293 293 293 293 293 293 293 293 293 297 300
306 307 307 308 308 308 309 309 309 310 310 310 310 310 311 312 312 312 312 313 313 313 313 313 313 313 313 313 313 313 313 313 313 312 311 309 307 304 301 298 297 300 304 306 305 304 305 304 304 303 301 296 293 293 293 292 293 293 292 293 295 299 301